Voltar ao catálogo

ARIANE 5 DEB

SYLDA

AtivoHEO
NORAD 42743·DEBRIS·🇫🇷 France

Lançado Jun 1, 2017 de Guiana Space Centre

Loading…

Próximas Passagens (próximas 24 horas)

TLE

AtualizadoSource: Space-Track

Época: Sep 14, 2026, 03:36 UTC

1 42743U 17029D   26257.15063690  .00056766  00000-0  68622-2 0  9997
2 42743   5.9418 133.4012 6225841  21.0080 356.2010  3.73212451 92200

Acompanhe ARIANE 5 DEB em tempo real com AllMySat

Download on the App Store